Time,TemperatureF,DewpointF,PressureIn,WindDirection,WindDirectionDegrees,WindSpeedMPH,WindSpeedGustMPH,Humidity,HourlyPrecipIn,Conditions,Clouds,dailyrainin,SoftwareType,DateUTC
2013-11-12 00:09:00,35.0,34.0,30.09,WNW,294,2.0,6.0,96,0.03,,,0.01,weatherlink.com 1.10,2013-11-12 05:09:00,
2013-11-12 00:28:00,34.3,33.0,30.09,West,268,0.0,9.0,96,0.04,,,0.02,weatherlink.com 1.10,2013-11-12 05:28:00,
2013-11-12 00:47:00,33.6,33.0,30.10,West,270,3.0,9.0,96,0.04,,,0.03,weatherlink.com 1.10,2013-11-12 05:47:00,
2013-11-12 01:06:00,32.4,31.0,30.10,NE,51,2.0,6.0,96,0.02,,,0.03,weatherlink.com 1.10,2013-11-12 06:06:00,
2013-11-12 01:25:00,31.9,31.0,30.11,North,359,0.0,3.0,96,0.01,,,0.03,weatherlink.com 1.10,2013-11-12 06:25:00,
2013-11-12 01:44:00,30.7,30.0,30.12,WNW,301,3.0,7.0,96,0.00,,,0.03,weatherlink.com 1.10,2013-11-12 06:44:00,
2013-11-12 02:03:00,30.2,29.0,30.13,NW,322,1.0,5.0,96,0.00,,,0.03,weatherlink.com 1.10,2013-11-12 07:03:00,
2013-11-12 02:22:00,29.3,28.0,30.15,NW,311,1.0,5.0,96,0.00,,,0.03,weatherlink.com 1.10,2013-11-12 07:22:00,
2013-11-12 02:41:00,28.9,28.0,30.16,NW,309,2.0,4.0,96,0.00,,,0.03,weatherlink.com 1.10,2013-11-12 07:41:00,
2013-11-12 03:00:00,28.4,27.0,30.16,WNW,292,1.0,5.0,96,0.00,,,0.03,weatherlink.com 1.10,2013-11-12 08:00:00,
2013-11-12 03:20:00,27.8,27.0,30.17,West,274,1.0,5.0,96,0.00,,,0.03,weatherlink.com 1.10,2013-11-12 08:20:00,
2013-11-12 03:38:00,27.5,27.0,30.17,West,274,0.0,4.0,96,0.00,,,0.03,weatherlink.com 1.10,2013-11-12 08:38:00,
2013-11-12 03:57:00,26.9,26.0,30.18,West,259,0.0,6.0,96,0.00,,,0.03,weatherlink.com 1.10,2013-11-12 08:57:00,
2013-11-12 04:16:00,26.5,26.0,30.18,NW,318,0.0,3.0,96,0.00,,,0.03,weatherlink.com 1.10,2013-11-12 09:16:00,
2013-11-12 04:36:00,26.0,25.0,30.20,NW,316,0.0,6.0,96,0.00,,,0.03,weatherlink.com 1.10,2013-11-12 09:36:00,
2013-11-12 04:55:00,25.6,25.0,30.20,NNE,23,1.0,5.0,96,0.00,,,0.03,weatherlink.com 1.10,2013-11-12 09:55:00,
2013-11-12 05:14:00,25.3,24.0,30.21,NW,315,1.0,8.0,96,0.00,,,0.03,weatherlink.com 1.10,2013-11-12 10:14:00,
2013-11-12 05:33:00,24.9,24.0,30.23,WNW,297,0.0,10.0,95,0.00,,,0.03,weatherlink.com 1.10,2013-11-12 10:33:00,
2013-11-12 05:52:00,24.7,24.0,30.23,WNW,293,0.0,3.0,96,0.00,,,0.03,weatherlink.com 1.10,2013-11-12 10:52:00,
2013-11-12 06:12:00,24.4,23.0,30.25,WNW,293,0.0,2.0,95,0.00,,,0.03,weatherlink.com 1.10,2013-11-12 11:12:00,
2013-11-12 06:31:00,24.2,23.0,30.26,NNW,334,2.0,5.0,95,0.00,,,0.03,weatherlink.com 1.10,2013-11-12 11:31:00,
2013-11-12 06:50:00,24.1,23.0,30.26,WNW,294,2.0,4.0,95,0.00,,,0.03,weatherlink.com 1.10,2013-11-12 11:50:00,
2013-11-12 07:09:00,24.0,23.0,30.28,WSW,248,0.0,4.0,95,0.00,,,0.03,weatherlink.com 1.10,2013-11-12 12:09:00,
2013-11-12 07:28:00,24.2,23.0,30.29,ESE,102,0.0,1.0,95,0.00,,,0.03,weatherlink.com 1.10,2013-11-12 12:28:00,
2013-11-12 07:47:00,24.2,23.0,30.30,NW,308,2.0,3.0,95,0.00,,,0.03,weatherlink.com 1.10,2013-11-12 12:47:00,
2013-11-12 08:06:00,24.3,23.0,30.31,WNW,290,1.0,2.0,95,0.00,,,0.03,weatherlink.com 1.10,2013-11-12 13:06:00,
2013-11-12 08:25:00,24.4,23.0,30.32,North,350,0.0,6.0,95,0.00,,,0.03,weatherlink.com 1.10,2013-11-12 13:25:00,
2013-11-12 08:44:00,24.3,23.0,30.32,NW,316,3.0,5.0,95,0.00,,,0.03,weatherlink.com 1.10,2013-11-12 13:44:00,
2013-11-12 09:04:00,24.8,23.0,30.33,WNW,284,0.0,6.0,94,0.00,,,0.03,weatherlink.com 1.10,2013-11-12 14:04:00,
2013-11-12 09:22:00,25.6,24.0,30.33,North,3,1.0,5.0,93,0.00,,,0.03,weatherlink.com 1.10,2013-11-12 14:22:00,
2013-11-12 09:41:00,26.5,24.0,30.33,SE,139,0.0,13.0,89,0.00,,,0.03,weatherlink.com 1.10,2013-11-12 14:41:00,
2013-11-12 10:01:00,27.2,23.0,30.34,WNW,285,10.0,15.0,85,0.00,,,0.03,weatherlink.com 1.10,2013-11-12 15:01:00,
2013-11-12 10:20:00,25.9,22.0,30.35,NW,323,6.0,11.0,85,0.00,,,0.03,weatherlink.com 1.10,2013-11-12 15:20:00,
2013-11-12 10:39:00,26.4,23.0,30.35,WNW,290,4.0,8.0,85,0.00,,,0.03,weatherlink.com 1.10,2013-11-12 15:39:00,
2013-11-12 10:57:00,27.5,22.0,30.35,West,268,4.0,9.0,80,0.00,,,0.03,weatherlink.com 1.10,2013-11-12 15:57:00,
2013-11-12 11:17:00,27.3,22.0,30.35,NW,319,2.0,7.0,79,0.00,,,0.03,weatherlink.com 1.10,2013-11-12 16:17:00,
2013-11-12 11:36:00,27.3,20.0,30.35,NE,50,4.0,10.0,75,0.00,,,0.03,weatherlink.com 1.10,2013-11-12 16:36:00,
2013-11-12 11:55:00,27.5,21.0,30.35,WNW,290,1.0,9.0,76,0.00,,,0.03,weatherlink.com 1.10,2013-11-12 16:55:00,
2013-11-12 12:14:00,28.6,20.0,30.35,ENE,72,1.0,7.0,71,0.00,,,0.03,weatherlink.com 1.10,2013-11-12 17:14:00,
2013-11-12 12:33:00,28.6,21.0,30.35,WNW,298,1.0,11.0,74,0.00,,,0.03,weatherlink.com 1.10,2013-11-12 17:33:00,
2013-11-12 12:52:00,29.0,20.0,30.35,NNW,346,0.0,8.0,69,0.00,,,0.03,weatherlink.com 1.10,2013-11-12 17:52:00,
2013-11-12 13:11:00,29.3,21.0,30.35,WNW,291,2.0,9.0,70,0.00,,,0.03,weatherlink.com 1.10,2013-11-12 18:11:00,
2013-11-12 13:30:00,28.9,20.0,30.36,NW,313,8.0,15.0,68,0.00,,,0.03,weatherlink.com 1.10,2013-11-12 18:30:00,
2013-11-12 13:49:00,28.3,19.0,30.36,West,269,1.0,8.0,69,0.00,,,0.03,weatherlink.com 1.10,2013-11-12 18:49:00,
2013-11-12 14:08:00,29.3,19.0,30.36,WNW,302,3.0,7.0,65,0.00,,,0.03,weatherlink.com 1.10,2013-11-12 19:08:00,
2013-11-12 14:27:00,28.4,19.0,30.37,SW,234,3.0,6.0,68,0.00,,,0.03,weatherlink.com 1.10,2013-11-12 19:27:00,
2013-11-12 14:46:00,28.2,20.0,30.38,West,269,4.0,5.0,70,0.00,,,0.03,weatherlink.com 1.10,2013-11-12 19:46:00,
2013-11-12 15:05:00,28.4,20.0,30.38,SW,226,0.0,5.0,69,0.00,,,0.03,weatherlink.com 1.10,2013-11-12 20:05:00,
2013-11-12 15:25:00,27.9,20.0,30.39,NNE,30,3.0,12.0,72,0.00,,,0.03,weatherlink.com 1.10,2013-11-12 20:25:00,
2013-11-12 15:44:00,27.3,20.0,30.40,WSW,248,1.0,10.0,73,0.00,,,0.03,weatherlink.com 1.10,2013-11-12 20:44:00,
2013-11-12 16:02:00,26.7,20.0,30.40,WSW,250,1.0,8.0,74,0.00,,,0.03,weatherlink.com 1.10,2013-11-12 21:02:00,
2013-11-12 16:21:00,26.3,20.0,30.40,WNW,287,1.0,9.0,76,0.00,,,0.03,weatherlink.com 1.10,2013-11-12 21:21:00,
2013-11-12 16:41:00,25.5,19.0,30.41,NNW,331,0.0,4.0,77,0.00,,,0.03,weatherlink.com 1.10,2013-11-12 21:41:00,
2013-11-12 17:00:00,25.3,18.0,30.41,WNW,283,1.0,4.0,74,0.00,,,0.03,weatherlink.com 1.10,2013-11-12 22:00:00,
2013-11-12 17:19:00,25.6,17.0,30.41,NW,307,1.0,3.0,69,0.00,,,0.03,weatherlink.com 1.10,2013-11-12 22:19:00,
2013-11-12 17:37:00,24.9,18.0,30.41,NNW,334,6.0,6.0,74,0.00,,,0.03,weatherlink.com 1.10,2013-11-12 22:37:00,
2013-11-12 17:56:00,24.7,17.0,30.42,WNW,289,0.0,3.0,71,0.00,,,0.03,weatherlink.com 1.10,2013-11-12 22:56:00,
2013-11-12 18:16:00,24.1,17.0,30.43,WNW,290,1.0,3.0,74,0.00,,,0.03,weatherlink.com 1.10,2013-11-12 23:16:00,
2013-11-12 18:35:00,24.8,18.0,30.43,WSW,250,0.0,9.0,74,0.00,,,0.03,weatherlink.com 1.10,2013-11-12 23:35:00,
2013-11-12 18:54:00,25.1,19.0,30.44,WNW,295,0.0,5.0,76,0.00,,,0.03,weatherlink.com 1.10,2013-11-12 23:54:00,
2013-11-12 19:12:00,25.2,20.0,30.45,West,281,2.0,10.0,82,0.00,,,0.03,weatherlink.com 1.10,2013-11-13 00:12:00,
2013-11-12 19:32:00,24.6,22.0,30.45,WNW,285,0.0,9.0,88,0.00,,,0.03,weatherlink.com 1.10,2013-11-13 00:32:00,
2013-11-12 19:51:00,24.5,22.0,30.45,West,264,3.0,9.0,89,0.00,,,0.03,weatherlink.com 1.10,2013-11-13 00:51:00,
2013-11-12 20:10:00,24.5,22.0,30.45,NE,48,2.0,13.0,89,0.00,,,0.03,weatherlink.com 1.10,2013-11-13 01:10:00,
2013-11-12 20:29:00,24.1,21.0,30.46,WNW,300,3.0,10.0,89,0.00,,,0.03,weatherlink.com 1.10,2013-11-13 01:29:00,
2013-11-12 20:48:00,23.6,21.0,30.46,WNW,293,4.0,10.0,88,0.00,,,0.03,weatherlink.com 1.10,2013-11-13 01:48:00,
2013-11-12 21:07:00,23.3,20.0,30.46,NW,315,1.0,9.0,87,0.00,,,0.03,weatherlink.com 1.10,2013-11-13 02:07:00,
2013-11-12 21:26:00,23.1,20.0,30.47,West,276,4.0,8.0,88,0.00,,,0.03,weatherlink.com 1.10,2013-11-13 02:26:00,
2013-11-12 21:46:00,22.5,19.0,30.47,West,271,3.0,8.0,88,0.00,,,0.03,weatherlink.com 1.10,2013-11-13 02:46:00,
2013-11-12 22:05:00,22.3,19.0,30.48,WSW,243,2.0,10.0,86,0.00,,,0.03,weatherlink.com 1.10,2013-11-13 03:05:00,
2013-11-12 22:24:00,22.3,19.0,30.48,NW,311,2.0,9.0,86,0.00,,,0.03,weatherlink.com 1.10,2013-11-13 03:24:00,
2013-11-12 22:42:00,22.0,18.0,30.48,WNW,286,1.0,8.0,86,0.00,,,0.03,weatherlink.com 1.10,2013-11-13 03:42:00,
2013-11-12 23:02:00,21.5,18.0,30.48,West,262,2.0,7.0,86,0.00,,,0.03,weatherlink.com 1.10,2013-11-13 04:02:00,
2013-11-12 23:21:00,21.3,18.0,30.49,West,277,2.0,4.0,87,0.00,,,0.03,weatherlink.com 1.10,2013-11-13 04:21:00,
2013-11-12 23:40:00,21.7,18.0,30.49,WNW,282,2.0,5.0,86,0.00,,,0.03,weatherlink.com 1.10,2013-11-13 04:40:00,
2013-11-12 23:59:00,21.9,18.0,30.49,West,278,3.0,5.0,86,0.00,,,0.03,weatherlink.com 1.10,2013-11-13 04:59:00,